Location: Aurora Center
(43.5271°N, 98.5894°W)
Time: 04:11:34
(UTC-05:00)

Tiros 1 - Visible Passes

Search period start: 15 July 2024 00:00
Search period end: 25 July 2024 00:00
Orbit: 624 x 656 km, 48.4° (Epoch: 14 July)

Date Brightness Start Highest point End Pass type
(mag) Time Alt. Az. Time Alt. Az. Time Alt. Az.
15 Jul 7.2 21:51:03 10° WNW 21:55:39 73° SSW 22:00:12 10° SE visible
15 Jul 8.9 23:34:08 10° W 23:37:06 17° SW 23:37:45 17° SW visible
16 Jul 7.9 22:15:04 10° WNW 22:19:20 39° SW 22:22:52 14° SSE visible
17 Jul 8.9 22:39:32 10° W 22:42:51 20° SW 22:45:33 12° S visible
19 Jul 8.9 21:44:58 10° W 21:48:34 23° SW 21:52:08 10° S visible
20 Jul 9.7 22:11:08 10° WSW 22:11:55 10° SW 22:12:42 10° SW visible
